GOMX4-B (43196 NORAD) Tracking and Keplerian Element Data.

This shows tracking and keplerian element data for the satellite.

Feedback or suggestion? Click here.

Epoch Orbit727
Epoch Day81.11809479
Epoch Year2018
Argument of Perigee103.2002
Mean Anonmoly257.4579
Mean Motion15.23446931
Decay Rate2.327E-05
L11 43196U 18015E 18081.11809479 .00002327 00000-0 10000-3 0 9993
L22 43196 97.3337 211.9309 0021601 103.2002 257.4579 15.23446931 7273

Live tracking and technical data element details for GOMX4-B (NORAD 43196). GOMX4-B can be tracked NOW for your location showing map with azimuth and elevation plus other details from your city location.

Tracking and technical details about the satellite: track the satellite on the map from your city or location and see movement details for azimuth, elevation, latitude, longitude, range, height, and movement on the map or in text.

Es'hailsat 2 (coming in 2018)

IsCatalogInMostPopularTable: catalog: 43196, numindb: 20
Update: records affected: 1

GetName: 43196 GOMX4-B

Hit Count: updated at: Thu, 22 Mar 2018 13:46:41 GMT